EUTELSAT 33F

Last updated on Sun Jun 21 2026 00:03:04 GMT+0000 (Coordinated Universal Time)

1 29270U 06032A 26171.32695471 .00000151 00000+0 00000+0 0 9990 2 29270 1.6709 82.2134 0003855 4.8576 332.2502 1.00272297 47330
UTC large
Height (km)
Speed (km/s)
/
Latitude / Longitude
Inclination (degrees)
Orbital Period (minutes)
Azimuth
Elevation
Range (km)
Doppler Factor

Next 0 passes for location: London (51.5072 / 0.1276)

No passes found over London.
EUTELSAT 33F